YKRY

Details ICAO YKRY (KGY)
Name Kingaroy
Region Australia
Timezone Australia/Brisbane (UTC+10.0)
Plans Departing 205
Arriving 170
Stats Elevation 1,492 ft / 455 m (AMSL)
Location -26.580500° 151.840000°
Runways 3
Magnetic Variation 10.396° E
Sunrise 2020-01-27 19:24:06 UTC / 2020-01-28 05:24:06 Local
Sunset 2020-01-28 08:49:00 UTC / 2020-01-28 18:49:00 Local
Advertisement - Login to hide

Runways

ID Width Length Bearing (true/mag) Surface Threshold Overrun Markings Lighting
05 203 ft / 62 m 4,718 ft / 1,438 m 65.23° / 54.83° GRASS 0 ft / 0 m 0 ft / 0 m NONE
16 98 ft / 30 m 5,274 ft / 1,608 m 169.15° / 158.76° ASPHALT 0 ft / 0 m 0 ft / 0 m APP EDGE THRESHOLD
16R 102 ft / 31 m 3,553 ft / 1,083 m 168.38° / 157.99° GRASS 0 ft / 0 m 0 ft / 0 m NONE
23 203 ft / 62 m 4,718 ft / 1,438 m 245.22° / 234.82° GRASS 0 ft / 0 m 0 ft / 0 m NONE
34 98 ft / 30 m 5,274 ft / 1,608 m 349.15° / 338.76° ASPHALT 0 ft / 0 m 0 ft / 0 m APP EDGE THRESHOLD
34L 102 ft / 31 m 3,553 ft / 1,083 m 348.38° / 337.99° GRASS 0 ft / 0 m 0 ft / 0 m NONE

Map

Weather


0- 5 10 15 20 25 30 35+ Temperature / °C

Clouds and Precipitation
Forecast for 2020-01-28 12:00 UTC. Updated 2 hours ago

Ground ~20,000 ft ~40,000 ft Winds

METAR

YKRY 281000Z AUTO 08007KT 9999 // SCT045 OVC069 23/22 Q1016

TAF

Not found

Frequencies

Unicom 122.70 MHz CTAF
Warning: Do not use this data for real-world aviation or navigation. No guarantee of current accuracy is given.